Location: Demonte
(44.3148°N, 7.2945°E)
Time: 07:12:00
(UTC+02:00)

ISS - Visible Passes

Search period start: 20 July 2018 00:00
Search period end: 30 July 2018 00:00
Orbit: 402 x 408 km, 51.6° (Epoch: 20 July)

Date Brightness Start Highest point End Pass type
(mag) Time Alt. Az. Time Alt. Az. Time Alt. Az.
20 Jul -1.9 00:38:18 10° W 00:41:16 30° NNW 00:44:14 10° NE visible
20 Jul -1.2 02:15:46 10° NW 02:18:25 22° N 02:21:06 10° ENE visible
20 Jul -2.7 03:52:17 10° NW 03:55:28 45° NNE 03:58:39 10° E visible
20 Jul -2.9 05:28:57 10° WNW 05:31:52 29° SW 05:34:47 10° SSE visible
20 Jul -3.2 22:09:36 10° SSW 22:12:35 33° SE 22:15:35 10° ENE visible
20 Jul -2.5 23:45:54 10° W 23:49:02 41° NNW 23:52:10 10° NE visible
21 Jul -1.2 01:23:27 10° NW 01:26:06 22° N 01:28:46 10° NE visible
21 Jul -2.0 03:00:14 10° NW 03:03:15 32° NNE 03:06:17 10° E visible
21 Jul -3.8 04:36:39 10° WNW 04:39:53 53° SW 04:43:06 10° SE visible
21 Jul -3.4 22:53:36 10° WSW 22:56:51 63° NNW 23:00:07 10° NE visible
22 Jul -1.3 00:31:03 10° WNW 00:33:47 24° N 00:36:32 10° NE visible
22 Jul -1.5 02:08:08 10° NW 02:10:59 26° NNE 02:13:49 10° ENE visible
22 Jul -3.9 03:44:30 10° WNW 03:47:48 87° NNE 03:51:05 10° ESE visible
22 Jul -2.0 05:22:10 10° W 05:23:52 13° SW 05:25:34 10° SSW visible
22 Jul -3.9 22:01:28 10° SW 22:04:43 76° SSE 22:08:00 10° ENE visible
22 Jul -1.7 23:38:35 10° WNW 23:41:29 28° NNW 23:44:23 10° NE visible
23 Jul -1.3 01:15:58 10° NW 01:18:39 23° N 01:20:50 13° NE visible
23 Jul -1.4 02:52:25 10° NW 02:53:19 17° NW 02:53:19 17° NW visible
23 Jul -2.2 22:46:07 10° W 22:49:11 36° NNW 22:52:16 10° NE visible
24 Jul -1.2 00:23:40 10° NW 00:26:18 22° N 00:28:57 10° NE visible
24 Jul -1.4 02:00:20 10° NW 02:01:44 21° NW 02:01:44 21° NW visible
24 Jul -3.0 21:53:44 10° WSW 21:56:57 53° NNW 22:00:10 10° NE visible
24 Jul -1.3 23:31:15 10° WNW 23:33:56 23° N 23:36:38 10° NE visible
25 Jul -1.7 01:08:13 10° NW 01:10:45 27° N 01:10:45 27° N visible
25 Jul -1.5 22:38:45 10° WNW 22:41:35 26° NNW 22:44:25 10° NE visible
26 Jul -1.5 00:16:02 10° NW 00:18:45 24° N 00:19:58 19° NE visible
26 Jul -0.8 01:52:26 10° NW 01:52:35 11° NW 01:52:35 11° NW visible
26 Jul -1.9 21:46:14 10° W 21:49:14 32° NNW 21:52:15 10° NE visible
26 Jul -1.4 23:23:44 10° NW 23:26:23 22° N 23:29:02 10° NE visible
27 Jul -1.5 01:00:18 10° NW 01:01:54 24° NW 01:01:54 24° NW visible
27 Jul -1.4 22:31:19 10° WNW 22:33:58 22° N 22:36:38 10° NE visible
28 Jul -2.1 00:08:10 10° NW 00:11:08 30° NNE 00:11:16 30° NNE visible
28 Jul -1.5 21:38:48 10° WNW 21:41:34 24° N 21:44:20 10° NE visible
28 Jul -1.7 23:15:58 10° NW 23:18:45 25° N 23:20:40 15° ENE visible
29 Jul -1.2 00:52:20 10° WNW 00:53:17 18° NW 00:53:17 18° NW visible
29 Jul -1.5 22:23:40 10° NW 22:26:20 22° N 22:29:00 10° ENE visible
